660  
NZUS52 KFFC 240710  
RWROBS  
WEATHER ROUNDUP FOR GEORGIA  
NATIONAL WEATHER SERVICE PEACHTREE CITY GA  
300 AM EDT TUE OCT 24 2017  
 
NOTE: "FAIR" INDICATES FEW OR NO CLOUDS BELOW 12,000 FEET WITH NO  
SIGNIFICANT WEATHER AND/OR S TO VISIBILITY
.  
 
* = USE WITH CAUTION. THE STATIONS MARKED WITH AN ASTERISK MAY NOT  
REPORT WEATHER SUCH AS PRECIPITATION, FOG, OR THUNDER AND ARE NOT  
QUALITY CONTROLLED BY NWS.  
 
THE REMARK "TC" DENOTES TEMPERATURE READING IN DEGREES CELSIUS.  
 
GAZ001>058-240800-  
NORTH GEORGIA  
 
CITY SKY/WX TMP DP RH WIND PRES REMARKS
 
ATLANTA CLEAR 52 51 97 W9 29.95S  
ATHENS CLEAR 53 51 93 W6 29.91F  
CHAMBLEE PTCLDY 52 50 93 W5 29.95S  
PEACHTREE CITY CLEAR 52 50 93 W3 29.97F  
ROME CLOUDY 50 50 100 CALM 29.94F  
WEST ATLANTA CLEAR 52 51 97 CALM 29.96S  
GAINESVILLE CLEAR 52 50 93 W9 29.93F  
CARTERSVILLE CLEAR 48 48 100 CALM 29.96F  
 
 
CITY SKY/WX TMP DP RH WIND PRES REMARKS
 
DALTON CLEAR 48 48 100 CALM 29.96S  
LAWRENCEVILLE CLEAR 52 50 93 W5 N/A  
MARIETTA CLEAR 51 49 92 W7 29.95F  
KENNESAW PTCLDY 51 50 96 W3 29.96F  
WINDER CLEAR 54 50 87 N8 29.95S  
CANTON CLOUDY 54 54 100 CALM 29.96S  
TOCCOA CLEAR 58 52 80 W5 29.90S  
CORNELIA FAIR 50 47 90 W5 29.91F  
CANON FAIR 54 50 88 CALM 29.90F  
JASPER FAIR 48 48 100 CALM 29.97S  

 
 
GAZ059>098-102>109-240800-  
CENTRAL GEORGIA  
 
CITY SKY/WX TMP DP RH WIND PRES REMARKS
 
AUGUSTA-BUSH CLEAR 60 54 80 NW6 29.88F  
AUGUSTA-DANIEL CLEAR 60 52 74 NW10 29.89F  
COLUMBUS CLEAR 54 50 86 CALM 29.98S  
MACON CLEAR 53 52 96 W7 29.95F  
ROBINS AFB CLEAR 53 52 96 W7 29.95F  
GREENSBORO CLEAR 55 54 94 W3 29.88F  
THOMSON CLEAR 56 52 87 NW6 29.95F  
SANDERSVILLE FAIR N/A N/A N/A CALM 29.92F  
THOMASTON CLEAR 54 50 87 NW8 29.96F  
BUTLER N/A 53 50 92 W3 29.96F  
 
 
CITY SKY/WX TMP DP RH WIND PRES REMARKS
 
LAGRANGE N/A 49 49 98 CALM 29.98F FOG  
SYLVANIA CLEAR 60 59 99 CALM 29.92S  
MILLEDGEVILLE NOT AVBL  
CARROLLTON FAIR 47 46 98 CALM 30.00S  
AMERICUS FAIR 54 54 100 CALM 29.98F  
CORDELE FAIR 60 55 83 CALM 29.97F  

 
 
GAZ099>101-110>166-240800-  
SOUTH GEORGIA  
 
CITY SKY/WX TMP DP RH WIND PRES REMARKS
 
SAVANNAH CLOUDY 65 59 81 NW7 29.91R  
VALDOSTA PTCLDY 58 55 90 CALM 29.95S  
ALMA MOCLDY 61 55 81 NW5 29.93S  
ST SIMONS CLEAR 67 62 84 NW7 29.90R  
FT STEWART PTCLDY 63 58 82 W3 29.90R  
ALBANY PTCLDY 56 54 93 CALM 29.99F  
HUNTER AFB CLOUDY 66 60 81 W5 29.88S  
MOODY AFB PTCLDY 59 54 84 NW7 29.94S  
BRUNSWICK CLEAR 64 59 82 NW6 29.92R  
 
 
CITY SKY/WX TMP DP RH WIND PRES REMARKS
 
BAINBRIDGE CLEAR 59 57 94 NW3 29.98F  
MOULTRIE CLEAR 59 54 82 NW3 29.97S  
VIDALIA PTCLDY 59 55 88 NW3 29.93F  
WAYCROSS MOCLDY 62 56 80 N6 29.94S  
DOUGLAS MOCLDY 59 52 77 NW3 29.96S  
TIFTON FAIR 58 55 92 NW7 29.95S  
HAZELHURST FAIR 58 50 75 CALM 29.93S  

 
 
 
CLICK HERE TO GO TO PREVIOUS BULLETINS.

The Nexlab GA Page Main Text Page